Date,TemperatureHighF,TemperatureAvgF,TemperatureLowF,DewpointHighF,DewpointAvgF,DewpointLowF,HumidityHigh,HumidityAvg,HumidityLow,PressureMaxIn,PressureMinIn,WindSpeedMaxMPH,WindSpeedAvgMPH,GustSpeedMaxMPH,PrecipitationSumIn
2013-1-1,59.7,51.9,43.5,51.8,46.5,39.7,93,82,62,30.12,29.80,12,2,14,0.00
2013-1-2,54.0,47.2,40.6,52.0,45.2,37.6,97,93,88,30.17,29.76,10,2,14,0.00
2013-1-3,44.7,40.9,30.4,39.0,36.0,27.8,93,82,73,30.25,29.98,8,1,13,0.00
2013-1-4,51.6,36.5,25.2,37.7,29.8,22.2,93,78,43,30.31,30.04,10,1,13,0.00
2013-1-5,50.3,35.6,23.7,33.3,27.2,19.9,90,74,42,30.39,30.11,6,1,12,0.00
2013-1-6,50.2,44.7,34.3,43.6,39.4,31.1,89,82,67,30.27,29.93,6,0,9,0.00
2013-1-7,52.4,41.2,30.5,43.1,34.4,27.5,90,78,53,30.45,29.98,13,2,17,0.00
2013-1-8,62.0,45.1,30.5,56.1,41.8,27.6,95,88,78,30.45,30.21,8,1,10,0.00
2013-1-9,70.2,54.2,38.7,58.0,50.0,37.1,98,87,62,30.43,30.20,4,0,4,0.00
2013-1-10,60.5,51.1,42.9,53.2,42.0,33.8,97,74,44,30.51,30.25,14,2,16,0.00
2013-1-11,74.5,58.8,43.6,64.7,54.2,38.8,96,85,65,30.43,30.14,11,1,16,0.00
2013-1-12,75.2,62.2,54.1,68.0,59.7,53.3,98,92,74,30.18,30.09,9,1,10,0.00
2013-1-13,76.1,62.0,54.9,67.5,59.2,54.1,100,91,71,30.17,30.09,6,0,14,0.00
2013-1-14,75.1,61.5,49.9,68.6,59.1,49.4,100,93,67,30.20,30.10,9,1,17,0.00
2013-1-15,67.0,57.5,52.9,63.4,56.2,51.2,100,95,85,30.20,30.07,7,1,12,0.00
2013-1-16,73.4,61.3,50.6,68.5,58.7,50.0,100,92,73,60.21,29.96,14,2,22,0.00
2013-1-17,69.5,53.9,41.5,67.0,52.7,40.4,100,96,86,60.13,29.82,15,3,27,0.00
2013-1-18,48.3,39.5,27.7,41.0,34.7,25.2,97,84,54,60.07,29.99,16,3,21,0.00
2013-1-19,58.3,41.3,27.2,46.3,36.9,25.0,97,86,59,60.65,30.17,5,0,7,0.00
2013-1-20,65.1,46.3,35.5,49.0,38.8,32.6,97,79,33,60.32,29.99,15,2,18,0.00
2013-1-21,63.6,45.0,29.6,51.7,39.0,26.8,93,81,56,60.21,29.88,11,1,15,0.00
2013-1-22,45.8,37.5,22.4,39.2,16.8,8.0,93,45,24,60.07,29.93,13,3,21,0.00
2013-1-23,42.1,28.7,20.6,18.3,11.3,2.3,79,51,27,60.42,30.12,11,1,12,0.00
2013-1-24,43.1,33.3,23.8,33.4,16.1,2.7,86,51,30,60.28,29.99,19,5,26,0.00
2013-1-25,44.0,31.7,20.9,28.4,18.3,2.4,78,59,37,60.64,30.10,8,1,12,0.00
2013-1-26,39.7,33.7,28.6,30.7,27.5,23.7,86,78,65,60.28,30.12,7,2,11,0.00
2013-1-27,43.3,33.4,25.5,28.0,24.0,19.6,87,70,45,60.54,30.40,13,2,15,0.00
2013-1-28,59.6,44.3,25.6,53.6,37.0,21.2,91,77,54,60.67,30.26,6,0,11,0.00
2013-1-29,74.7,59.9,50.1,63.0,55.6,49.0,99,87,56,60.40,30.13,13,2,18,0.00
2013-1-30,74.5,64.4,53.1,66.8,60.6,51.7,98,88,74,60.30,29.62,18,4,35,0.00
2013-1-31,67.9,52.3,31.2,64.8,40.7,22.8,95,68,27,59.36,29.51,22,7,32,0.00
2013-2-1,52.4,39.1,22.6,31.6,21.0,7.1,91,51,24,59.79,30.00,26,5,34,0.00
2013-2-2,47.4,31.9,17.3,26.1,18.2,11.0,80,60,28,60.12,30.03,7,0,12,0.00
2013-2-3,52.7,39.2,28.5,36.1,29.0,22.5,85,68,41,59.76,29.87,12,2,20,0.00
2013-2-4,51.1,37.5,23.7,31.4,25.0,19.9,89,64,34,59.72,30.01,10,1,11,0.00
2013-2-5,61.6,47.1,36.1,43.4,36.6,30.0,94,69,40,59.78,29.90,15,2,19,0.00
2013-2-6,64.6,47.9,33.1,48.4,39.0,31.0,95,76,33,59.70,29.98,7,1,11,0.00
2013-2-7,61.6,50.8,40.3,54.0,47.9,38.7,99,90,65,59.99,29.82,19,4,26,0.00
2013-2-8,61.1,52.0,42.3,60.5,49.3,33.2,100,91,63,59.58,29.46,18,5,29,0.00
2013-2-9,52.9,41.6,26.7,34.2,27.1,22.8,88,59,32,59.71,30.00,18,4,24,0.00
2013-2-10,56.5,39.4,23.3,45.1,33.2,19.7,91,80,48,60.10,30.33,8,1,10,0.00
2013-2-11,63.5,58.9,45.8,60.0,53.7,42.7,94,83,65,60.06,29.94,19,4,24,0.00
2013-2-12,65.0,57.6,50.7,51.1,45.5,34.2,87,66,33,59.68,29.94,13,2,18,0.00
2013-2-13,58.2,52.4,48.0,53.7,48.5,43.3,91,87,82,59.72,29.66,10,2,16,0.00
2013-2-14,55.2,46.8,36.5,45.3,38.1,32.8,92,73,54,59.52,29.84,9,2,12,0.00
2013-2-15,58.6,42.5,30.0,47.6,35.7,26.0,91,79,43,30.10,29.81,8,1,10,0.00
2013-2-16,55.8,40.2,31.0,47.2,36.3,28.1,94,86,66,29.93,29.53,14,3,17,0.00
2013-2-17,39.4,32.3,21.6,32.3,22.3,9.9,92,70,32,30.30,29.68,18,4,25,0.00
2013-2-18,49.0,31.8,17.4,25.3,18.2,12.4,86,62,27,30.47,30.14,13,1,14,0.00
2013-2-19,63.7,46.8,27.5,54.4,41.4,24.0,93,82,69,30.26,29.75,21,4,27,0.00
2013-2-20,55.9,42.5,29.9,42.6,28.5,19.0,91,63,25,30.12,29.79,15,2,18,0.00
2013-2-21,54.3,38.5,25.0,33.6,28.1,22.2,92,71,32,30.26,29.93,10,1,13,0.00
2013-2-22,53.1,44.3,36.2,44.5,35.0,27.2,86,70,57,30.35,29.94,10,2,12,0.00
2013-2-23,61.8,53.9,48.1,59.3,50.7,44.1,94,89,86,30.08,29.67,13,1,16,0.00
2013-2-24,60.5,50.3,40.3,49.3,45.2,36.7,96,84,57,30.01,29.77,6,2,14,0.00
2013-2-25,47.1,42.4,37.8,41.5,33.7,29.5,92,72,57,30.20,30.02,7,3,19,0.00
2013-2-26,66.5,57.9,40.9,64.7,54.9,35.2,94,90,80,30.11,29.61,34,4,34,0.00
2013-2-27,62.4,52.7,42.1,58.3,45.7,40.2,96,79,49,29.81,29.61,15,3,23,0.00
2013-2-28,59.3,45.7,32.4,42.1,36.4,28.2,96,72,43,29.84,29.70,14,2,17,0.00
2013-3-1,55.0,42.1,27.6,38.6,31.9,25.2,92,69,40,29.90,29.80,11,1,15,0.00
2013-3-2,43.6,35.1,28.7,34.6,30.5,25.0,89,83,67,29.92,29.86,4,0,4,0.00
2013-10-18,107.4,72.9,66.9,67.4,62.4,54.4,95,72,46,59.91,29.96,6,0,10,0.00
2013-10-19,81.4,71.3,65.8,74.3,69.7,64.9,100,95,77,59.85,29.83,4,0,7,0.00
2013-10-20,69.4,67.3,65.1,69.4,67.2,63.0,100,100,93,29.88,29.86,0,0,6,0.00
2013-10-21,72.2,63.9,48.1,63.3,52.5,37.4,87,68,47,30.13,29.98,7,0,10,0.00
2013-10-22,69.7,61.8,56.4,59.2,54.2,43.6,88,77,57,29.98,29.81,0,0,3,0.00
2013-10-23,72.8,61.1,48.5,58.8,52.5,39.2,89,75,43,29.92,29.63,12,1,18,0.00
2013-10-24,60.7,47.7,39.5,45.1,33.2,27.1,85,58,38,30.15,29.92,5,1,13,0.00
2013-10-25,58.1,46.3,33.7,34.7,30.1,21.2,76,54,35,30.33,30.15,11,1,15,0.00
2013-10-26,63.9,44.6,30.5,49.5,37.9,22.1,95,79,51,30.33,30.09,7,0,10,0.00
2013-10-27,67.8,49.7,37.6,54.9,43.2,35.2,97,81,46,30.14,30.04,5,0,9,0.00
2013-10-28,73.3,54.7,39.7,64.6,49.6,38.4,98,85,48,30.24,30.13,4,0,6,0.00
2013-10-29,73.1,57.5,46.6,59.8,51.0,45.5,98,82,47,30.30,30.21,6,0,8,0.00
2013-10-30,76.9,58.0,47.0,65.4,52.5,43.8,95,84,51,30.30,30.17,4,0,8,0.00
2013-10-31,73.2,61.5,48.7,70.8,59.7,47.9,99,94,84,30.21,29.99,8,0,17,0.00
2013-11-1,75.0,69.1,65.7,70.0,66.7,64.5,96,92,83,29.99,29.85,11,1,20,0.00
2013-11-18,77.9,63.9,53.4,69.7,60.7,46.4,98,90,76,29.88,29.75,2,0,11,0.00
2013-11-19,56.8,49.3,42.8,44.7,37.2,33.8,81,64,43,30.25,29.88,6,2,18,0.00
2013-11-20,59.9,50.9,43.3,48.1,43.5,37.3,86,76,61,30.38,30.24,6,2,22,0.00
2013-11-21,64.6,55.6,49.7,59.3,53.4,48.6,99,93,78,30.43,30.36,3,0,11,0.00
2013-11-22,74.1,58.3,46.8,69.6,56.8,46.5,100,95,74,30.36,30.07,3,0,8,0.00
2013-11-23,66.7,58.1,45.1,63.3,54.8,31.2,98,89,58,30.08,30.00,5,1,17,0.00
2013-11-24,44.7,36.5,27.9,30.9,17.1,6.3,64,46,31,30.52,30.08,10,3,22,0.00
2013-11-25,44.6,32.9,25.1,23.5,16.6,6.6,69,51,40,30.58,30.34,5,1,11,0.00
2013-11-26,69.3,54.5,32.1,67.6,48.1,21.7,97,79,62,30.34,29.63,7,1,24,0.00
2013-11-27,70.4,55.7,32.5,69.2,54.4,31.0,100,96,85,30.14,29.42,7,3,27,0.00
2013-11-28,32.5,31.6,30.2,30.7,29.1,27.3,93,90,88,30.24,30.14,5,3,15,0.00
2013-11-29,52.3,41.0,30.5,31.3,28.9,24.5,81,64,37,30.60,30.48,5,1,14,0.00
2013-11-30,57.1,46.0,37.1,42.3,35.8,30.1,83,68,49,30.57,30.31,6,1,18,0.00
2013-12-1,58.1,49.4,41.2,43.9,39.8,32.7,76,70,54,30.31,30.00,3,0,7,0.00
2013-12-2,57.3,50.0,40.1,43.9,40.4,30.7,80,70,57,29.99,29.78,2,0,9,0.00
2013-12-3,62.4,44.9,33.1,50.0,36.3,25.2,89,73,46,30.04,29.85,1,0,6,0.00
2013-12-4,66.5,57.0,48.8,63.4,54.7,45.1,98,92,84,30.13,30.02,3,0,10,0.00
2013-12-5,75.3,61.6,49.3,70.2,59.1,48.8,100,92,72,30.19,30.10,5,0,12,0.00
2013-12-6,77.3,70.2,67.0,68.9,66.7,64.4,100,89,69,30.17,30.07,9,3,25,0.00
2013-12-7,69.6,49.0,43.0,67.6,46.9,-99.9,98,95,80,30.43,30.08,7,3,22,0.00
2013-12-8,49.0,44.8,42.8,47.6,43.8,42.0,98,97,94,30.40,30.25,6,2,18,0.00
2013-12-9,71.6,56.6,45.0,65.8,54.2,43.9,96,92,81,30.25,30.07,6,0,16,0.00
2013-12-10,70.4,56.1,36.8,65.5,52.4,35.6,97,88,65,30.32,29.83,9,2,24,0.00
2013-12-11,49.3,36.5,26.8,37.1,29.4,21.3,96,77,45,30.48,30.29,5,0,12,0.00
2013-12-12,47.4,35.2,25.2,28.5,23.7,12.9,85,64,43,30.40,30.25,8,1,16,0.00
2013-12-13,51.4,33.4,22.6,37.9,20.4,10.4,81,60,36,30.44,30.31,4,0,11,0.00
2013-12-14,65.6,50.3,29.5,62.7,42.8,24.1,92,76,47,30.33,29.75,8,2,28,0.00
2013-12-15,63.6,54.1,37.0,61.2,50.8,33.3,95,89,73,30.07,29.69,9,1,20,0.00
2013-12-16,55.6,39.6,29.7,47.2,34.6,27.9,96,84,49,30.21,30.07,6,1,14,0.00
2013-12-17,59.6,45.6,29.8,51.1,39.2,26.4,91,79,54,30.20,29.95,8,2,24,0.00
2013-12-18,52.9,41.5,26.0,42.6,28.0,15.7,85,60,36,30.34,29.98,6,1,20,0.00
2013-12-19,58.9,38.9,25.2,49.3,31.2,18.7,92,75,49,30.38,30.29,7,1,16,0.00
2013-12-20,70.4,50.8,36.2,60.1,46.2,31.5,98,85,61,30.31,30.17,4,0,13,0.00
2013-12-21,73.1,60.0,48.0,70.8,58.9,47.5,100,96,84,30.22,30.14,4,0,18,0.00
2013-12-22,77.9,69.9,66.1,74.0,68.2,65.7,100,95,77,30.17,30.11,8,2,22,0.00
2013-12-23,75.9,69.7,61.7,70.6,67.4,59.4,100,93,77,30.15,30.03,10,3,24,0.00
2013-12-24,61.5,43.9,33.2,59.5,41.8,28.1,100,93,73,30.41,30.05,7,2,19,0.00
2013-12-25,43.9,37.1,30.4,35.8,29.3,22.3,84,73,62,30.54,30.39,6,2,17,0.00
2013-12-26,45.2,42.4,36.5,43.1,39.6,35.2,96,90,83,30.39,30.25,4,0,13,0.00
2013-12-27,52.7,38.8,28.9,43.3,32.7,23.1,98,81,48,30.43,30.33,5,1,16,0.00
2013-12-28,59.6,42.7,26.9,51.9,35.9,18.8,93,78,54,30.42,30.17,3,0,7,0.00
2013-12-29,68.1,61.1,48.6,65.7,56.6,42.5,95,85,74,30.17,29.73,12,3,30,0.00
2013-12-30,59.6,48.9,38.4,52.8,44.9,36.5,96,87,67,30.13,29.92,3,0,8,0.00
2013-12-31,53.6,44.4,33.1,42.0,36.6,24.1,88,75,45,30.37,30.10,4,1,15,0.00
2014-1-1,56.2,42.1,29.6,43.6,34.0,21.1,88,74,49,30.44,30.15,2,0,5,0.00
2014-1-2,58.5,51.3,47.2,52.9,46.5,42.9,90,84,74,30.15,29.51,12,1,20,0.00